When you browse on this site, cookies collect data to enhance your experience and personalize the content and advertising you see.
Visit our Privacy Policy to learn more. By continuing to use the site, you agree to this use of cookies and data.
  • Em Portugal
  • Lista de países
  • Para 7 dias
  • Temperatura da água
  • Mapa do tempo
  • Widgets de tempo
  • user-avatar
    Iniciar Sessão

    Previsão horária em Chasha

    Hoje, 29 Janeiro, Quarta-feira

    Tempo Temperatura Precipitação Vento Pressão Humidade
    00:00 0°C° 0.1 mm 4 m/s 735 mmHg 96%
    01:00 0°C° 0.1 mm 4 m/s 735 mmHg 96%
    02:00 0°C° 0 mm 4 m/s 734 mmHg 97%
    03:00 +1°C° 0 mm 3 m/s 734 mmHg 97%
    04:00 +1°C° 0 mm 3 m/s 733 mmHg 97%
    05:00 +1°C° 0 mm 3 m/s 733 mmHg 96%
    06:00 +1°C° 0 mm 3 m/s 733 mmHg 96%
    07:00 +1°C° 0 mm 3 m/s 732 mmHg 96%
    08:00 0°C° 0 mm 3 m/s 732 mmHg 94%
    09:00 0°C° 1 mm 3 m/s 732 mmHg 95%
    10:00 0°C° 1 mm 3 m/s 732 mmHg 97%
    11:00 -1°C° 1 mm 3 m/s 732 mmHg 98%
    12:00 0°C° 0.5 mm 3 m/s 732 mmHg 97%
    13:00 0°C° 0.5 mm 3 m/s 733 mmHg 97%
    14:00 0°C° 0 mm 3 m/s 733 mmHg 91%
    15:00 0°C° 0 mm 3 m/s 733 mmHg 90%
    16:00 0°C° 0 mm 3 m/s 733 mmHg 88%
    17:00 0°C° 0 mm 3 m/s 733 mmHg 87%
    18:00 -1°C° 0 mm 3 m/s 733 mmHg 88%
    19:00 -1°C° 0 mm 2 m/s 733 mmHg 89%
    20:00 -1°C° 0 mm 2 m/s 733 mmHg 89%
    21:00 -1°C° 0 mm 2 m/s 733 mmHg 91%
    22:00 -1°C° 0 mm 2 m/s 733 mmHg 92%
    23:00 -1°C° 0 mm 2 m/s 733 mmHg 93%

    Amanhã, 30 Janeiro, Quinta-feira

    Tempo Temperatura Precipitação Vento Pressão Humidade
    00:00 -1°C° 0 mm 2 m/s 734 mmHg 92%
    01:00 -1°C° 0 mm 2 m/s 734 mmHg 91%
    02:00 -1°C° 0 mm 2 m/s 735 mmHg 89%
    03:00 -1°C° 0.1 mm 2 m/s 735 mmHg 91%
    04:00 -1°C° 0.1 mm 3 m/s 735 mmHg 94%
    05:00 -1°C° 0.1 mm 3 m/s 735 mmHg 96%
    06:00 -2°C° 0.1 mm 4 m/s 735 mmHg 95%
    07:00 -1°C° 0.1 mm 5 m/s 736 mmHg 95%
    08:00 -1°C° 0.1 mm 5 m/s 736 mmHg 94%
    09:00 -1°C° 0 mm 5 m/s 736 mmHg 91%
    10:00 -1°C° 0 mm 5 m/s 737 mmHg 87%
    11:00 -1°C° 0 mm 5 m/s 737 mmHg 84%
    12:00 0°C° 0 mm 5 m/s 737 mmHg 85%
    13:00 0°C° 0 mm 5 m/s 737 mmHg 86%
    14:00 0°C° 0 mm 5 m/s 738 mmHg 87%
    15:00 0°C° 0.1 mm 5 m/s 738 mmHg 90%
    16:00 0°C° 0.1 mm 5 m/s 738 mmHg 92%
    17:00 -1°C° 0.1 mm 4 m/s 738 mmHg 95%
    18:00 -1°C° 0 mm 4 m/s 738 mmHg 94%
    19:00 -1°C° 0 mm 4 m/s 738 mmHg 92%
    20:00 -1°C° 0 mm 3 m/s 739 mmHg 91%
    21:00 -1°C° 0 mm 3 m/s 738 mmHg 91%
    22:00 -1°C° 0 mm 3 m/s 738 mmHg 91%
    23:00 -1°C° 0 mm 3 m/s 738 mmHg 90%

    Depois de amanhã, 31 Janeiro, Sexta-feira

    Tempo Temperatura Precipitação Vento Pressão Humidade
    00:00 -1°C° 0 mm 3 m/s 737 mmHg 91%
    01:00 -1°C° 0 mm 3 m/s 737 mmHg 93%
    02:00 -1°C° 0 mm 4 m/s 737 mmHg 94%
    03:00 -1°C° 0.1 mm 4 m/s 736 mmHg 95%
    04:00 +1°C° 0.1 mm 3 m/s 736 mmHg 96%
    05:00 +1°C° 0.1 mm 3 m/s 735 mmHg 97%
    06:00 +1°C° 0.1 mm 3 m/s 735 mmHg 97%
    07:00 +1°C° 0.1 mm 3 m/s 734 mmHg 97%
    08:00 +1°C° 0.1 mm 3 m/s 734 mmHg 97%
    09:00 +1°C° 0.3 mm 3 m/s 734 mmHg 97%
    10:00 +2°C° 0.3 mm 3 m/s 734 mmHg 97%
    11:00 +2°C° 0.3 mm 3 m/s 733 mmHg 98%
    12:00 +2°C° 0.3 mm 3 m/s 733 mmHg 97%
    13:00 +2°C° 0.3 mm 3 m/s 733 mmHg 97%
    14:00 +2°C° 0.3 mm 3 m/s 733 mmHg 97%
    15:00 +3°C° 0.1 mm 2 m/s 733 mmHg 97%
    16:00 +2°C° 0.1 mm 2 m/s 733 mmHg 97%
    17:00 +2°C° 0.1 mm 2 m/s 733 mmHg 98%
    18:00 +2°C° 0.1 mm 2 m/s 734 mmHg 98%
    19:00 +2°C° 0.1 mm 2 m/s 735 mmHg 97%
    20:00 +2°C° 0.1 mm 2 m/s 735 mmHg 97%
    21:00 +2°C° 0 mm 2 m/s 736 mmHg 97%
    22:00 +2°C° 0 mm 2 m/s 736 mmHg 97%
    23:00 +2°C° 0 mm 2 m/s 736 mmHg 97%

    1 Fevereiro, Sábado

    Tempo Temperatura Precipitação Vento Pressão Humidade
    00:00 +2°C° 0 mm 2 m/s 737 mmHg 96%
    01:00 +2°C° 0 mm 2 m/s 737 mmHg 96%
    02:00 +2°C° 0 mm 2 m/s 737 mmHg 96%
    03:00 +2°C° 0 mm 2 m/s 737 mmHg 96%
    04:00 +2°C° 0 mm 2 m/s 737 mmHg 97%
    05:00 +2°C° 0 mm 2 m/s 737 mmHg 97%
    06:00 +2°C° 0 mm 2 m/s 737 mmHg 97%
    07:00 +2°C° 0 mm 3 m/s 737 mmHg 96%
    08:00 +2°C° 0 mm 3 m/s 738 mmHg 96%
    09:00 +3°C° 0 mm 3 m/s 737 mmHg 95%
    10:00 +3°C° 0 mm 4 m/s 737 mmHg 95%
    11:00 +4°C° 0 mm 4 m/s 737 mmHg 95%
    12:00 +4°C° 0.2 mm 4 m/s 737 mmHg 95%
    13:00 +4°C° 0.2 mm 4 m/s 737 mmHg 95%
    14:00 +4°C° 0.2 mm 4 m/s 737 mmHg 96%
    15:00 +4°C° 0.5 mm 4 m/s 736 mmHg 96%
    16:00 +5°C° 0.5 mm 4 m/s 736 mmHg 96%
    17:00 +5°C° 0.5 mm 4 m/s 736 mmHg 96%
    18:00 +5°C° 0 mm 4 m/s 735 mmHg 96%
    19:00 +5°C° 0 mm 4 m/s 735 mmHg 95%
    20:00 +5°C° 0 mm 4 m/s 735 mmHg 95%
    21:00 +5°C° 0 mm 4 m/s 735 mmHg 95%
    22:00 +5°C° 0 mm 4 m/s 734 mmHg 95%
    23:00 +5°C° 0 mm 4 m/s 734 mmHg 95%

    2 Fevereiro, Domingo

    Tempo Temperatura Precipitação Vento Pressão Humidade
    00:00 +5°C° 0.1 mm 4 m/s 733 mmHg 94%
    01:00 +5°C° 0.1 mm 5 m/s 733 mmHg 94%
    02:00 +5°C° 0.1 mm 5 m/s 732 mmHg 94%
    03:00 +5°C° 0.5 mm 5 m/s 731 mmHg 94%
    04:00 +5°C° 0.5 mm 5 m/s 730 mmHg 94%
    05:00 +5°C° 0.5 mm 5 m/s 729 mmHg 94%
    06:00 +5°C° 0.5 mm 5 m/s 729 mmHg 94%
    07:00 +6°C° 0.5 mm 5 m/s 729 mmHg 94%
    08:00 +6°C° 0.5 mm 5 m/s 729 mmHg 94%
    09:00 +5°C° 0.2 mm 6 m/s 729 mmHg 91%
    10:00 +5°C° 0.2 mm 6 m/s 730 mmHg 88%
    11:00 +5°C° 0.2 mm 6 m/s 730 mmHg 85%
    12:00 +5°C° 0 mm 7 m/s 731 mmHg 81%
    13:00 +4°C° 0 mm 7 m/s 732 mmHg 76%
    14:00 +4°C° 0 mm 8 m/s 732 mmHg 71%
    15:00 +4°C° 0 mm 7 m/s 733 mmHg 72%
    16:00 +3°C° 0 mm 6 m/s 733 mmHg 73%
    17:00 +3°C° 0 mm 5 m/s 734 mmHg 74%
    18:00 +3°C° 0 mm 5 m/s 734 mmHg 78%
    19:00 +3°C° 0 mm 5 m/s 734 mmHg 81%
    20:00 +2°C° 0 mm 6 m/s 734 mmHg 85%
    21:00 +2°C° 0.1 mm 5 m/s 734 mmHg 85%
    22:00 +2°C° 0.1 mm 5 m/s 734 mmHg 86%
    23:00 +2°C° 0.1 mm 5 m/s 734 mmHg 86%

    3 Fevereiro, Segunda-feira

    Tempo Temperatura Precipitação Vento Pressão Humidade
    00:00 +2°C° 0.1 mm 6 m/s 733 mmHg 84%
    01:00 +2°C° 0.1 mm 6 m/s 733 mmHg 83%
    02:00 +2°C° 0.1 mm 7 m/s 733 mmHg 81%
    03:00 +1°C° 0.1 mm 6 m/s 733 mmHg 83%
    04:00 +1°C° 0.1 mm 6 m/s 734 mmHg 85%
    05:00 +1°C° 0.1 mm 6 m/s 734 mmHg 87%
    06:00 +1°C° 0.1 mm 6 m/s 734 mmHg 87%
    07:00 +1°C° 0.1 mm 5 m/s 734 mmHg 87%
    08:00 +1°C° 0.1 mm 5 m/s 735 mmHg 87%
    09:00 +1°C° 0 mm 5 m/s 735 mmHg 83%
    10:00 +1°C° 0 mm 5 m/s 736 mmHg 79%
    11:00 +1°C° 0 mm 5 m/s 736 mmHg 75%
    12:00 +1°C° 0 mm 6 m/s 736 mmHg 73%
    13:00 +2°C° 0 mm 6 m/s 737 mmHg 71%
    14:00 +2°C° 0 mm 6 m/s 737 mmHg 69%
    15:00 +2°C° 0 mm 6 m/s 737 mmHg 69%
    16:00 +1°C° 0 mm 6 m/s 737 mmHg 70%
    17:00 +1°C° 0 mm 6 m/s 738 mmHg 70%
    18:00 0°C° 0 mm 5 m/s 738 mmHg 71%
    19:00 0°C° 0 mm 5 m/s 739 mmHg 73%
    20:00 0°C° 0 mm 5 m/s 739 mmHg 74%
    21:00 -1°C° 0 mm 5 m/s 739 mmHg 76%
    22:00 -1°C° 0 mm 5 m/s 739 mmHg 79%
    23:00 -2°C° 0 mm 5 m/s 739 mmHg 81%
    Mostrar mais